Location: Neuvy Saint Sepulchre
(46.5953°N, 1.8122°E)
Time: 16:31:36
(UTC+02:00)

ISS - Pass Details

Date: 13 May 2026
Orbit: 414 x 424 km, 51.6° (Epoch: 21 May)

Event Time Altitude Azimuth Distance (km) Brightness Sun altitude
Rises 01:43:13 0° 295° (WNW) 2,356 0.4 -25.1°
Reaches altitude 10° 01:45:20 10° 300° (WNW) 1,492 -0.6 -25.1°
Enters shadow 01:46:21 18° 304° (NW) 1,094 -1.3 -25.1°
